Weather in Villa de Leyva

Colombia     5°32′03″N   73°21′41″W
temp.,
°C
wind,
m/s
gust,
m/s
humid.,
%
clouds,
%
prec.,
mm/h
press.,
hPa
HPBL,
m
17 april, sat
sat1701:00+9sse119291 0.0 1018116
04:00+8ese1190100 0.0 101899
07:00+10se1184100 0.0 1020325
10:00+15s226394 0.0 10181226
13:00+14sse3373100 0.2 1016676
16:00+13sse2284100 0.9 1014506
19:00+10s1298100 1.8 1017110
22:00+10s1299100 0.2 1019116
18 april, sun
sun1801:00+10sse1298100 0.4 1018111
04:00+9sse1198100 0.6 101876
07:00+10sse119499 1.1 1019195
10:00+14s227599 0.4 10181055
13:00+14s2278100 1.9 1015739
16:00+13s2286100 2.3 1014552
19:00+11s129787 3.0 1017101
22:00+10s129799 0.3 102075
19 april, mon
mon1901:00+8se119597 0.3 101913
04:00+8ese119482 0.0 101830
07:00+9se118728 0.0 1020144
10:00+16s225296 0.0 10181269
13:00+19ssw234370 0.0 10132267
16:00+14s237574 0.4 1014716
19:00+10s2397100 1.7 1018242
22:00+10s1298100 1.1 1020196
20 april, tue
tue2001:00+9s129799 1.8 1018180
04:00+9sse1197100 0.9 1018128
07:00+9sse1293100 1.6 1020198
10:00+14s217099 0.0 1019901
13:00+16ssw326475 0.3 10151303
16:00+14s227392 0.8 1014771
19:00+10sse129786 1.6 1018120
22:00+10s129899 1.3 1019160
21 april, wed
wed2101:00+10ssw1299100 2.1 1018181
04:00+9s129895 0.6 1018179
07:00+10s129492 0.7 1019260
10:00+12s228299 0.1 1019678
13:00+15s3366100 0.3 10151167
16:00+14s227489 0.3 1013810
19:00+10s2296100 0.7 1017163
22:00+10sse119798 0.3 101962